Regional Weather Roundup
Issued by NWS

Home | Current Version | Previous Version | Graphics & Text | Print | Product List | Glossary On
Versions: 1 2 3 4 5 6 7 8 9 10 11 12 13 14 15 16 17 18 19 20 21 22 23 24 25 26 27 28
000
ASUS45 KCYS 180110
RWRWY

WYOMING REGIONAL WEATHER ROUNDUP
NATIONAL WEATHER SERVICE CHEYENNE WY
700 PM MDT THU APR 17 2014

NOTE:  "FAIR" INDICATES FEW OR NO CLOUDS BELOW 12,000 FEET
WITH NO SIGNIFICANT WEATHER AND/OR OBSTRUCTIONS TO VISIBILITY.

WYZ001-180200-
YELLOWSTONE NATIONAL PARK

CITY           SKY/WX    TMP DP  RH WIND       PRES   REMARKS
LK YELLOWSTONE   N/A     43  21  41 W3        29.98F
W YELLOWSTONE  NOT AVBL

$$
WYZ002>013-054>058-071-098>099-180200-
NORTHERN WYOMING

CITY           SKY/WX    TMP DP  RH WIND       PRES   REMARKS
JACKSON        SUNNY     54  21  28 S9G17       N/A
CODY           PTSUNNY   59  23  25 W12G17    29.83F
GREYBULL       PTCLDY    62  23  22 SE13      29.82F
WORLAND        PTCLDY    61  26  26 E10       29.82F
SHERIDAN       CLEAR     57  30  35 SE7       29.83F
BUFFALO        CLEAR     57  21  24 CALM      29.87F
GILLETTE       PTCLDY    58  25  28 S6        29.87S
HULETT         FAIR      54  32  43 S5        29.91
NEWCASTLE      FAIR      52  30  43 SE13      29.93

$$
WYZ014>020-022>026-101>103-180200-
CENTRAL WYOMING

CITY           SKY/WX    TMP DP  RH WIND       PRES   REMARKS
BIG PINEY      PTSUNNY   55  17  22 NW13      29.99S
PINEDALE       MOCLDY    50  23  34 N6        30.00S
DUBOIS         FAIR      46  18  31 N7        29.95F
LANDER         MOCLDY    59  28  30 CALM      29.87S
RIVERTON       CLOUDY    58  18  21 SE6       29.88F
CASPER         PTCLDY    57  25  29 W10       29.89S
DOUGLAS        MOCLDY    55  33  43 SE14      29.92F

$$
WYZ021-027>030-104>119-180200-
SOUTHERN WYOMING

CITY           SKY/WX    TMP DP  RH WIND       PRES   REMARKS
EVANSTON       MOSUNNY   58  23  26 SW15G22   29.99F
KEMMERER       CLEAR     54  21  28 W13       30.00F
FORT BRIDGER   FAIR      61  22  22 W14G21    30.01S
ROCK SPRINGS   MOSUNNY   59  18  20 W9        29.97F
DIXON          FAIR      58  19  22 SW12G20   30.03F
RAWLINS        MOCLDY    55  16  21 S21       29.98F
SARATOGA       FAIR      52  19  28 SW10      30.03S
LARAMIE        CLEAR     49  20  31 SW10      30.01S
CHEYENNE       CLEAR     54  22  28 S12       29.99S
TORRINGTON     CLEAR     56  36  47 SE17G24   29.93F
PINE BLUFFS    FAIR      55  25  30 S10       29.98F

$$



USA.gov is the U.S. government's official web portal to all federal, state and local government web resources and services.